User: anonymous   Login
Location: Unspecified
(0.0000°N, 0.0000°E)
Time: 01:57:00
(UTC+01:00)
Language:

ARIANE DEB (SPELDA) - Orbit

View from above orbital plane
View from above orbital plane
View from above satellite
View from above satellite

Ground track
Ground track

The orbit data is extracted from the following two-line orbital elements,

1 27402U 02015D   17055.89591849  .00000629  00000-0  79091-3 0  9990
2 27402   3.3245 167.9788 7083819 226.7913  46.7899  2.48533459131265
Epoch (UTC): 24 February 2017 21:30:07
Eccentricity: 0.7083819
inclination: 3.3245°
perigee height: 335 km
apogee height: 32952 km
right ascension of ascending node: 167.9788°
argument of perigee: 226.7913°
revolutions per day: 2.48533459
mean anomaly at epoch: 46.7899°
orbit number at epoch: 13126

The dashed part of the orbit path shows where the satellite is in the earth's shadow,  

DLR